Location: Casone le Fosse
(44.6547°N, 12.1103°E)
Time: 03:54:03
(UTC+00:00)

USA 307 - Pass Details

Date: 29 October 2020
Orbit: 569 x 579 km, 54.0° (Epoch: 30 November)

Event Time Altitude Azimuth Distance (km) Brightness Sun altitude
Rises 17:00:05 0° 305° (NW) 2,791 7.2 -10.5°
Reaches altitude 10° 17:02:26 10° 312° (NW) 1,888 6.1 -10.9°
Maximum altitude 17:06:34 45° 26° (NNE) 791 3.4 -11.6°
Enters shadow 17:09:29 18° 93° (E) 1,444 4.3 -12.1°
